Terminal Aerodrome Forecast
Issued by NWS

Home | Current Version | Previous Version | Text Only | Print | Product List | Glossary On
Versions: 1 2 3 4 5 6 7 8 9 10 11 12 13 14 15 16 17 18 19 20 21 22 23 24 25 26 27 28 29 30
000
FTUS45 KSLC 171903 AAA
TAFEVW
TAF AMD
KEVW 171903Z 1719/1818 10014KT P6SM FEW100
     FM172100 24010G17KT P6SM SCT100
     FM180300 15008KT P6SM SCT100
     FM181400 22012G18KT P6SM SCT100=

USA.gov is the U.S. government's official web portal to all federal, state and local government web resources and services.